| time (UTC) | temp C | wind direction | speed KPH | gust KPH | rain 1hr cm | rain 24hr cm | rain mn cm | humidity % | barometer mb |
| 20260906073042 | 11 | 221 | 0.0 | 1.6 | 0.00 | 0.00 | 0.00 | 1 | 1013.6 |
| 20260906071539 | 11 | 219 | 0.0 | 0.0 | 0.00 | 0.00 | 0.00 | 1 | 1013.7 |
| 20260906070033 | 11 | 219 | 0.0 | 0.0 | 0.00 | 0.00 | 0.00 | 1 | 1013.7 |
| 20260906064528 | 11 | 219 | 0.0 | 0.0 | 0.00 | 0.00 | 0.00 | 1 | 1013.7 |
| 20260906063025 | 11 | 219 | 0.0 | 0.0 | 0.00 | 0.00 | 0.00 | 1 | 1013.7 |
| 20260906061521 | 11 | 219 | 0.0 | 0.0 | 0.00 | 0.00 | 0.00 | 1 | 1013.7 |
| 20260906060024 | 11 | 219 | 0.0 | 0.0 | 0.00 | 0.00 | 0.00 | 1 | 1013.8 |
| 20260906054502 | 11 | 219 | 0.0 | 0.0 | 0.00 | 0.00 | 0.00 | 1 | 1013.8 |
| 20260906053100 | 12 | 219 | 0.0 | 0.0 | 0.00 | 0.00 | 0.00 | 1 | 1013.8 |
| 20260906051602 | 12 | 219 | 0.0 | 0.0 | 0.00 | 0.00 | 0.00 | 6 | 1014.0 |
| 20260906050054 | 12 | 219 | 0.0 | 0.0 | 0.00 | 0.00 | 0.00 | 12 | 1013.7 |
| 20260906044546 | 12 | 219 | 0.0 | 0.0 | 0.00 | 0.00 | 0.00 | 8 | 1013.8 |
| 20260906043043 | 12 | 219 | 0.0 | 0.0 | 0.00 | 0.00 | 0.00 | 9 | 1013.7 |
| 20260906041543 | 13 | 84 | 0.0 | 0.0 | 0.00 | 0.00 | 0.00 | 12 | 1013.9 |
| 20260906040034 | 13 | 84 | 0.0 | 0.0 | 0.00 | 0.00 | 0.00 | 11 | 1014.1 |
| 20260906034530 | 13 | 84 | 0.0 | 0.0 | 0.00 | 0.00 | 0.00 | 8 | 1014.3 |
| 20260906033037 | 13 | 84 | 0.0 | 0.0 | 0.00 | 0.00 | 0.00 | 15 | 1014.2 |
| 20260906031523 | 14 | 84 | 0.0 | 0.0 | 0.00 | 0.00 | 0.00 | 19 | 1014.1 |
| 20260906030016 | 14 | 84 | 0.0 | 0.0 | 0.00 | 0.00 | 0.00 | 20 | 1014.2 |
| 20260906024511 | 14 | 84 | 0.0 | 0.0 | 0.00 | 0.00 | 0.00 | 23 | 1014.1 |
| 20260906023007 | 14 | 84 | 0.0 | 0.0 | 0.00 | 0.00 | 0.00 | 26 | 1013.9 |
| 20260906021503 | 15 | 85 | 0.0 | 0.0 | 0.00 | 0.00 | 0.00 | 26 | 1013.9 |
| 20260906020104 | 15 | 84 | 0.0 | 0.0 | 0.00 | 0.00 | 0.00 | 30 | 1014.0 |
| 20260906014554 | 15 | 84 | 0.0 | 0.0 | 0.00 | 0.00 | 0.00 | 33 | 1013.9 |
| 20260906013050 | 15 | 85 | 0.0 | 0.0 | 0.00 | 0.00 | 0.00 | 39 | 1013.8 |
| 20260906011547 | 16 | 85 | 0.0 | 0.0 | 0.00 | 0.00 | 0.00 | 50 | 1013.7 |
| 20260906010042 | 17 | 84 | 0.0 | 0.0 | 0.00 | 0.00 | 0.00 | 60 | 1013.6 |
| 20260906004537 | 17 | 84 | 0.0 | 0.0 | 0.00 | 0.00 | 0.00 | 63 | 1013.5 |
| 20260906003032 | 17 | 84 | 0.0 | 0.0 | 0.00 | 0.00 | 0.00 | 63 | 1013.3 |
| 20260906001529 | 18 | 84 | 0.0 | 0.0 | 0.00 | 0.00 | 0.00 | 63 | 1013.2 |
| 20260906000024 | 19 | 85 | 0.0 | 1.6 | 0.00 | 0.00 | 0.00 | 62 | 1013.1 |
| 20260905234519 | 20 | 100 | 0.0 | 3.2 | 0.00 | 0.00 | 0.00 | 59 | 1013.0 |
| 20260905233015 | 20 | 350 | 0.0 | 1.6 | 0.00 | 0.00 | 0.00 | 60 | 1013.1 |
| 20260905231511 | 20 | 352 | 0.0 | 1.6 | 0.00 | 0.00 | 0.00 | 61 | 1013.1 |
| 20260905230006 | 21 | 352 | 0.0 | 1.6 | 0.00 | 0.00 | 0.00 | 60 | 1013.1 |
| 20260905224504 | 21 | 224 | 0.0 | 1.6 | 0.00 | 0.00 | 0.00 | 58 | 1013.1 |
| 20260905223059 | 20 | 122 | 0.0 | 3.2 | 0.00 | 0.00 | 0.00 | 60 | 1013.2 |
| 20260905221601 | 20 | 304 | 0.0 | 4.8 | 0.00 | 0.00 | 0.00 | 62 | 1013.3 |
| 20260905214545 | 19 | 77 | 0.0 | 1.6 | 0.00 | 0.00 | 0.00 | 62 | 1013.6 |
| 20260905213040 | 18 | 77 | 0.0 | 0.0 | 0.00 | 0.00 | 0.00 | 63 | 1013.7 |
| 20260905211534 | 18 | 77 | 0.0 | 0.0 | 0.00 | 0.00 | 0.00 | 63 | 1014.0 |
| 20260905210031 | 19 | 78 | 0.0 | 1.6 | 0.00 | 0.00 | 0.00 | 62 | 1014.0 |
| 20260905204527 | 20 | 13 | 0.0 | 1.6 | 0.00 | 0.00 | 0.00 | 62 | 1014.0 |
| 20260905203023 | 19 | 345 | 0.0 | 1.6 | 0.00 | 0.00 | 0.00 | 62 | 1014.1 |
| 20260905201518 | 20 | 357 | 0.0 | 1.6 | 0.00 | 0.00 | 0.00 | 61 | 1014.0 |
| 20260905200013 | 20 | 338 | 0.0 | 1.6 | 0.00 | 0.00 | 0.00 | 62 | 1013.9 |
| 20260905194509 | 20 | 340 | 0.0 | 1.6 | 0.00 | 0.00 | 0.00 | 62 | 1014.0 |
| 20260905193007 | 19 | 77 | 0.0 | 1.6 | 0.00 | 0.00 | 0.00 | 62 | 1014.0 |
| 20260905191600 | 18 | 82 | 0.0 | 1.6 | 0.00 | 0.00 | 0.00 | 61 | 1014.1 |
| 20260905190056 | 19 | 188 | 0.0 | 0.0 | 0.00 | 0.00 | 0.00 | 62 | 1014.3 |
| 20260905184555 | 18 | 150 | 0.0 | 0.0 | 0.00 | 0.00 | 0.00 | 61 | 1014.4 |
| 20260905183050 | 18 | 151 | 0.0 | 0.0 | 0.00 | 0.00 | 0.00 | 56 | 1014.5 |
| 20260905181601 | 17 | 149 | 0.0 | 0.0 | 0.00 | 0.00 | 0.00 | 43 | 1014.5 |
| 20260905180037 | 16 | 150 | 0.0 | 0.0 | 0.00 | 0.00 | 0.00 | 29 | 1014.6 |
| 20260905174541 | 16 | 150 | 0.0 | 0.0 | 0.00 | 0.00 | 0.00 | 22 | 1014.6 |
| 20260905173032 | 15 | 89 | 0.0 | 0.0 | 0.00 | 0.00 | 0.00 | 11 | 1014.6 |
| 20260905171535 | 15 | 89 | 0.0 | 0.0 | 0.00 | 0.00 | 0.00 | 6 | 1014.6 |
| 20260905170019 | 15 | 89 | 0.0 | 0.0 | 0.00 | 0.00 | 0.00 | 11 | 1014.6 |
| 20260905164510 | 15 | 88 | 0.0 | 0.0 | 0.00 | 0.00 | 0.00 | 19 | 1014.5 |
| 20260905163006 | 15 | 88 | 0.0 | 0.0 | 0.00 | 0.00 | 0.00 | 14 | 1014.3 |
| 20260905161501 | 15 | 88 | 0.0 | 0.0 | 0.00 | 0.00 | 0.00 | 14 | 1014.3 |
| 20260905160132 | 15 | 89 | 0.0 | 0.0 | 0.00 | 0.00 | 0.00 | 17 | 1014.5 |
| 20260905154552 | 14 | 89 | 0.0 | 0.0 | 0.00 | 0.00 | 0.00 | 15 | 1014.5 |
| 20260905153048 | 14 | 89 | 0.0 | 0.0 | 0.00 | 0.00 | 0.00 | 1 | 1014.5 |
| 20260905151545 | 13 | 88 | 0.0 | 0.0 | 0.00 | 0.00 | 0.00 | 1 | 1014.4 |
| 20260905150038 | 12 | 87 | 0.0 | 0.0 | 0.00 | 0.00 | 0.00 | 1 | 1014.3 |
| 20260905144535 | 12 | 87 | 0.0 | 0.0 | 0.00 | 0.00 | 0.00 | 1 | 1014.2 |
| 20260905143030 | 11 | 87 | 0.0 | 0.0 | 0.00 | 0.00 | 0.00 | 1 | 1014.2 |
| 20260905141526 | -17 | 0.0 | 0.0 | 0.00 | 0.00 | 0.00 | 1014.0 | ||
| 20260905140021 | -17 | 0.0 | 0.0 | 0.00 | 0.00 | 0.00 | 1014.0 | ||
| 20260905134516 | -17 | 0.0 | 0.0 | 0.00 | 0.00 | 0.00 | 1014.0 | ||
| 20260905133012 | -17 | 0.0 | 0.0 | 0.00 | 0.00 | 0.00 | 1014.0 | ||
| 20260905131508 | -17 | 0.0 | 0.0 | 0.00 | 0.00 | 0.00 | 1013.9 | ||
| 20260905130004 | -17 | 0.0 | 0.0 | 0.00 | 0.00 | 0.00 | 1014.0 | ||
| 20260905124601 | -17 | 0.0 | 0.0 | 0.00 | 0.00 | 0.00 | 1013.7 | ||
| 20260905123056 | -17 | 0.0 | 0.0 | 0.00 | 0.00 | 0.00 | 1013.7 | ||
| 20260905121552 | 10 | 87 | 0.0 | 0.0 | 0.00 | 0.00 | 0.00 | 1 | 1013.7 |
| 20260905120055 | 10 | 87 | 0.0 | 0.0 | 0.00 | 0.00 | 0.00 | 1 | 1013.6 |
| 20260905114542 | 10 | 87 | 0.0 | 0.0 | 0.00 | 0.00 | 0.00 | 1 | 1013.5 |
| 20260905113038 | 10 | 87 | 0.0 | 0.0 | 0.00 | 0.00 | 0.00 | 1 | 1013.4 |
| 20260905111534 | 10 | 87 | 0.0 | 0.0 | 0.00 | 0.00 | 0.00 | 1 | 1013.4 |
| 20260905110029 | 10 | 87 | 0.0 | 0.0 | 0.00 | 0.00 | 0.00 | 1 | 1013.4 |
| 20260905104525 | 11 | 87 | 0.0 | 0.0 | 0.00 | 0.00 | 0.00 | 1 | 1013.4 |
| 20260905103025 | 11 | 87 | 0.0 | 0.0 | 0.00 | 0.00 | 0.00 | 1 | 1013.4 |
| 20260905101517 | 11 | 87 | 0.0 | 0.0 | 0.00 | 0.00 | 0.00 | 1 | 1013.4 |
| 20260905100012 | 11 | 87 | 0.0 | 0.0 | 0.00 | 0.00 | 0.00 | 1 | 1013.4 |
| 20260905094510 | 11 | 87 | 0.0 | 0.0 | 0.00 | 0.00 | 0.00 | 1 | 1013.6 |
| 20260905093004 | 11 | 87 | 0.0 | 0.0 | 0.00 | 0.00 | 0.00 | 1 | 1013.6 |
| 20260905091622 | 11 | 87 | 0.0 | 0.0 | 0.00 | 0.00 | 0.00 | 1 | 1013.5 |
| 20260905090117 | 11 | 87 | 0.0 | 0.0 | 0.00 | 0.00 | 0.00 | 1 | 1013.3 |
| 20260905084600 | 11 | 87 | 0.0 | 0.0 | 0.00 | 0.00 | 0.00 | 1 | 1013.3 |
| 20260905083047 | 11 | 87 | 0.0 | 0.0 | 0.00 | 0.00 | 0.00 | 1 | 1013.2 |
| 20260905081543 | 11 | 87 | 0.0 | 0.0 | 0.00 | 0.00 | 0.00 | 1 | 1013.1 |
| 20260905080048 | 11 | 87 | 0.0 | 0.0 | 0.00 | 0.00 | 0.00 | 1 | 1013.2 |
| 20260905074534 | 11 | 87 | 0.0 | 0.0 | 0.00 | 0.00 | 0.00 | 1 | 1013.1 |